Weather in Nurlat

Russia / Republic of Tatarstan     54°25′41″N   50°48′17″E
temp.,
°C
wind,
m/s
gust,
m/s
humid.,
%
clouds,
%
prec.,
mm/h
press.,
hPa
HPBL,
m
6 march, sat
sat600:00−13sw34940 0.0 101048
03:00−14sw34960 0.0 101152
06:00−11sw499684 0.2 1012219
09:00−10w479592 0.2 1013306
12:00−7wnw4685100 0.0 1014750
15:00−8wnw238674 0.0 1014197
18:00−13w1285100 0.0 101421
21:00−15wsw128989 0.0 101420
7 march, sun
sun700:00−16sw23900 0.0 101320
03:00−16sw228933 0.0 101320
06:00−18wsw229649 0.0 101220
09:00−14sw239662 0.0 1012107
12:00−11ssw359579 0.0 1011270
15:00−10ssw479588 0.1 1009268
18:00−12s4109431 0.0 1007194
21:00−9s7149265 0.1 1005575
8 march, mon
mon800:00−7ssw81594100 1.3 1000897
03:00−5ssw101694100 3.0 9971044
06:00−5w81379100 1.4 997717
09:00−8sw5118368 1.4 999412
12:00−6sw7127789 0.0 1000677
15:00−5ssw6137864 0.0 1000759
18:00−4sw61190100 0.7 999591
21:00−7wsw51288100 1.1 1001414
9 march, tue
tue900:00−13sw47957 0.0 100393
03:00−15wsw479731 0.0 100599
06:00−16wsw469868 0.0 100698
09:00−13w469577 0.1 1008280
12:00−10w4689100 0.1 1009634
15:00−10wnw4589100 0.2 1010727
18:00−15wnw3494100 0.1 101142
21:00−19w349875 0.1 101330
10 march, wed
wed1000:00−20w339945 0.0 101327
03:00−21w239971 0.1 101426
06:00−22wnw2310099 0.0 101421
09:00−19wnw359699 0.1 1015270
12:00−16nw4590100 0.1 1016528
15:00−16nw4689100 0.1 1017613
18:00−18nw3796100 0.1 1018233
21:00−21nw3597100 0.1 1020109